Location: Carnières
(50.1682°N, 3.3474°E)
Time: 20:25:58
(UTC+00:00)

SL-16 R/B - Pass Details

Date: 09 August 2024
Orbit: 842 x 845 km, 71.0° (Epoch: 10 September)

Event Time Altitude Azimuth Distance (km) Brightness Sun altitude
Exits shadow 02:53:01 - 275° (W) 3,070 4.7 -13.1°
Reaches altitude 10° 02:55:22 10° 291° (WNW) 2,471 4.4 -12.8°
Maximum altitude 02:58:49 16° 329° (NNW) 2,071 4.4 -12.4°
Drops below altitude 10° 03:02:16 10° 7° (N) 2,477 5.4 -12.0°
Sets 03:05:46 0° 28° (NNE) 3,416 6.9 -11.6°
